Weather History for Lamar, CO

Change the Weather History Date:

Sunday, December 9, 2012

  Actual Average Record
Temperature  
Mean Temperature 19 °F 31 °F  
Max Temperature 34 °F 46 °F 72 °F (1957)
Min Temperature 4 °F 15 °F -17 °F (1919)
Degree Days  
Heating Degree Days 46 34  
Month to date heating degree days 217 297  
Since 1 July heating degree days 1296 1513  
Cooling Degree Days 0 0  
Month to date cooling degree days 0 0  
Year to date cooling degree days 1626 1121  
Moisture  
Dew Point 6 °F    
Average Humidity 53    
Maximum Humidity 69    
Minimum Humidity 37    
Precipitation  
Precipitation 0.00 in 0.01 in 0.29 in (1943)
Month to date precipitation T 0.11  
Year to date precipitation 6.06 14.91  
Sea Level Pressure  
Sea Level Pressure 30.17 in    
Wind  
Wind Speed 12 mph (NNW)    
Max Wind Speed 25 mph    
Max Gust Speed 35 mph    
Visibility 10 miles    
Events      
T = Trace of Precipitation, MM = Missing Value Source: NWS Daily Summary

Daily Weather History Graph

Daily Weather History Graph

Search for Another Location

Airport:

Trip Planner

Search our weather history database for the weather conditions in past years. The results will help you decide how hot, cold, wet, or windy it might be!

Date:

Astronomy

Dec. 09, 2012 Rise Set
Actual Time 6:55 AM MST 4:30 PM MST
Civil Twilight 6:26 AM MST 5:00 PM MST
Nautical Twilight 5:53 AM MST 5:33 PM MST
Astronomical Twilight 5:21 AM MST 6:05 PM MST
Moon 2:33 AM MST (12/9) 1:36 PM MST (12/9)
Length of Visible Light 10h 34m
Length of Day
9h 35m
Waning Crescent, 18% of the Moon is Illuminated
Dec 9
Waning Crescent
Dec 13
New
Dec 19
First Quarter
Dec 28
Full
Jan 4
Last Quarter

Hourly Weather History & Observations

Time (MST) Temp. Windchill Dew Point Humidity Pressure Visibility Wind Dir Wind Speed Gust Speed Precip Events Conditions
12:53 AM 33.1 °F 23.9 °F 12.9 °F 43% 29.89 in 10.0 mi North 12.7 mph - N/A   Overcast
1:53 AM 33.1 °F 23.9 °F 10.0 °F 38% 29.92 in 10.0 mi North 12.7 mph 18.4 mph N/A   Overcast
2:53 AM 32.0 °F 21.2 °F 14.0 °F 48% 29.95 in 10.0 mi North 16.1 mph - N/A   Overcast
3:53 AM 30.9 °F 24.3 °F 15.1 °F 52% 29.96 in 10.0 mi North 6.9 mph - N/A   Overcast
4:53 AM 28.9 °F 19.2 °F 14.0 °F 54% 30.01 in 10.0 mi North 11.5 mph - N/A   Overcast
5:53 AM 28.0 °F 14.9 °F 10.0 °F 47% 30.05 in 10.0 mi North 19.6 mph 24.2 mph N/A   Overcast
6:53 AM 26.1 °F 12.0 °F 12.0 °F 55% 30.11 in 10.0 mi North 20.7 mph 26.5 mph N/A   Overcast
7:53 AM 25.0 °F 15.5 °F 12.9 °F 60% 30.14 in 10.0 mi NNW 9.2 mph - N/A   Overcast
8:53 AM 27.0 °F 15.6 °F 9.0 °F 47% 30.16 in 10.0 mi NNW 13.8 mph - N/A   Overcast
9:53 AM 28.0 °F 16.5 °F 6.1 °F 39% 30.17 in 10.0 mi NNW 15.0 mph 25.3 mph N/A   Overcast
10:53 AM 28.9 °F 17.3 °F 6.1 °F 38% 30.19 in 10.0 mi NNW 16.1 mph - N/A   Overcast
11:53 AM 26.1 °F 14.0 °F 5.0 °F 41% 30.19 in 10.0 mi North 15.0 mph - N/A   Overcast
12:53 PM 27.0 °F 14.3 °F 3.9 °F 37% 30.17 in 10.0 mi North 17.3 mph - N/A   Overcast
1:53 PM 27.0 °F 14.7 °F 3.9 °F 37% 30.17 in 10.0 mi North 16.1 mph 25.3 mph N/A   Overcast
2:53 PM 27.0 °F 14.7 °F 3.0 °F 36% 30.19 in 10.0 mi North 16.1 mph 25.3 mph N/A   Overcast
3:53 PM 26.1 °F 13.6 °F 3.0 °F 37% 30.21 in 10.0 mi North 16.1 mph - N/A   Overcast
4:53 PM 23.0 °F 12.4 °F 1.0 °F 39% 30.26 in 10.0 mi North 10.4 mph - N/A   Scattered Clouds
5:53 PM 18.0 °F 11.1 °F -0.0 °F 45% 30.30 in 10.0 mi NNW 4.6 mph - N/A   Clear
6:53 PM 19.0 °F 10.0 °F 1.0 °F 46% 30.32 in 10.0 mi NW 6.9 mph - N/A   Clear
7:53 PM 12.0 °F 2.7 °F -0.9 °F 56% 30.35 in 10.0 mi West 5.8 mph - N/A   Clear
8:53 PM 10.0 °F 1.8 °F -2.0 °F 58% 30.34 in 10.0 mi WNW 4.6 mph - N/A   Clear
9:53 PM 7.0 °F -1.7 °F -2.9 °F 64% 30.34 in 10.0 mi West 4.6 mph - N/A   Clear
10:53 PM 8.1 °F 1.4 °F -2.9 °F 61% 30.31 in 10.0 mi WSW 3.5 mph - N/A   Clear
11:53 PM 7.0 °F -1.7 °F -0.9 °F 70% 30.30 in 10.0 mi SSW 4.6 mph - N/A   Clear